Regional Weather Roundup
Issued by NWS

Home | Current Version | Previous Version | Graphics & Text | Print | Product List | Glossary On
Versions: 1 2 3 4 5 6 7 8 9 10 11 12 13 14 15 16 17 18 19 20 21 22 23 24 25 26 27 28 29 30 31 32 33 34 35 36 37 38 39 40 41 42 43 44 45 46 47 48 49 50
000
ASUS43 KBIS 301710
RWRND

NORTH DAKOTA REGIONAL WEATHER ROUNDUP
NATIONAL WEATHER SERVICE BISMARCK ND
1200 PM CDT THU OCT 30 2014

NOTE: "FAIR" INDICATES FEW OR NO CLOUDS BELOW 12,000 FEET WITH NO
SIGNIFICANT WEATHER AND/OR OBSTRUCTIONS TO VISIBILITY.


NDZ001>003-009>011-017-301800-
NORTHWEST NORTH DAKOTA

CITY           SKY/WX    TMP DP  RH WIND       PRES   REMARKS
WILLISTON      CLOUDY    37  33  85 N7        30.41R
MINOT          CLOUDY    34  27  75 N15       30.40R
MINOT AFB      LGT RAIN  34  29  83 N14       30.41R
$$

NDZ018>021-031>035-040>046-301800-
SOUTHWEST NORTH DAKOTA

CITY           SKY/WX    TMP DP  RH WIND       PRES   REMARKS
BISMARCK       CLOUDY    35  31  85 N9        30.38R
DICKINSON      CLOUDY    37  32  82 N8        30.35R HAZE
GARRISON         N/A     34  30  85 N10       30.37R
HETTINGER ARPT CLOUDY    37  31  78 N9        30.36R
$$

NDZ004>008-012>016-024-026-027-054-301800-
NORTHEAST NORTH DAKOTA

CITY           SKY/WX    TMP DP  RH WIND       PRES   REMARKS
GRAND FORKS    CLOUDY    37  30  75 N23G29    30.30R
GRND FRKS AFB  CLOUDY    37  30  77 N18G28    30.31R
DEVILS LAKE    CLOUDY    34  19  55 N23G30    30.34R
$$

NDZ022-023-025-028>030-036>039-047>053-301800-
SOUTHEAST NORTH DAKOTA

CITY           SKY/WX    TMP DP  RH WIND       PRES   REMARKS
FARGO          CLOUDY    41  34  76 N20       30.26R
JAMESTOWN      CLOUDY    36  31  82 N20G25    30.29R
$$




USA.gov is the U.S. government's official web portal to all federal, state and local government web resources and services.